Location: St. Louis
(38.6270°N, 90.1994°W)
Time: 13:25:26
(UTC-06:00)

Vanguard 1 - Pass Details

Date: 02 December 2021
Orbit: 652 x 3830 km, 34.2° (Epoch: 19 January)

Event Time Altitude Azimuth Distance (km) Brightness Sun altitude
Rises 20:06:38 0° 178° (S) 6,371 14.2 -39.8°
Reaches altitude 10° 20:13:02 10° 161° (SSE) 5,922 13.8 -41.0°
Enters shadow 20:14:51 12° 155° (SSE) 5,858 13.7 -41.4°
Maximum altitude 20:23:49 17° 126° (SE) 5,955 - -43.1°
Drops below altitude 10° 20:36:03 10° 94° (E) 6,929 - -45.5°
Sets 20:44:29 0° 78° (ENE) 7,910 - -47.1°
